Regional Weather Roundup
Issued by NWS

Home | Current Version | Previous Version | Graphics & Text | Print | Product List | Glossary On
Versions: 1 2 3 4 5 6 7 8 9 10 11 12 13 14 15 16 17 18 19 20 21 22 23 24 25 26 27 28 29 30 31 32 33 34 35 36 37 38 39 40 41 42 43 44 45 46 47 48 49 50
000
ASUS45 KBOU 270207
RWRCO

WEATHER ROUNDUP FOR COLORADO
NATIONAL WEATHER SERVICE DENVER/BOULDER CO
800 PM MDT SUN MAR 26 2017

NOTE: "FAIR" INDICATES FEW OR NO CLOUDS BELOW 12000 FEET WITH NO
SIGNIFICANT WEATHER AND/OR OBSTRUCTIONS TO VISIBILITY.

COZ001>005-013-030-031-270300-
...NORTHWEST COLORADO...

CITY           SKY/WX    TMP DP  RH WIND       PRES   REMARKS
CRAIG          FAIR      41  24  51 SW6       29.97R
HAYDEN         FAIR      45  21  39 S3        29.98R
MEEKER         MOCLDY    41  27  57 E3        29.96S
MOUNT WERNER   NOT AVBL
STEAMBOAT SPGS FAIR      40  30  68 SE5       29.98S
WALDEN         NOT AVBL
$$

COZ006>008-011-270300-
...WEST CENTRAL VALLEYS...

CITY           SKY/WX    TMP DP  RH WIND       PRES   REMARKS
GRAND JUNCTION FAIR      53  26  35 NW7       29.93S
MONTROSE       FAIR      50  35  56 SE8       29.99S
EAGLE          MOCLDY    48  21  34 SW9       29.99R
RIFLE          FAIR      52  25  35 W8        29.94S
DELTA          FAIR      56  32  40 S8        29.96R
NUCLA          FAIR      50  27  40 CALM      30.01S
$$

COZ017>023-064>068-270300-
...SOUTHWEST COLORADO...

CITY           SKY/WX    TMP DP  RH WIND       PRES   REMARKS
DURANGO        FAIR      47  26  44 SW12      29.98R
CORTEZ         FAIR      49  33  54 S5        30.00R
PAGOSA SPRINGS CLOUDY    44  35  68 NE3       30.03R
TELLURIDE      FAIR      37  26  63 CALM      30.09S
WOLF CREEK PAS FOG       27  27 100 SW13G23   30.17R VSB 1/4 WCI  16
$$

COZ009-010-012-014-032>034-037-058>063-270300-
...CENTRAL COLORADO...

CITY           SKY/WX    TMP DP  RH WIND       PRES   REMARKS
ASPEN          FAIR      38  25  59 SE3       29.99S
BUENA VISTA    FAIR      43  18  36 W16       29.97R
COPPER MTN     FLURRIES  28  21  74 MISG      30.09R
BERTHOUD PASS  CLOUDY    19   9  63 NW15G23   30.07S WCI   5
COTTONWOOD PAS FAIR      39  18  41 SW20G29   30.03S
GUNNISON       FAIR      42  26  53 SW5       30.02
KREMMLING      FAIR      45  28  53 N8        30.00R
LEADVILLE      FAIR      31  19  61 NW7       30.03R WCI  24
MONARCH PASS   FAIR      25  21  86 W15       30.20F WCI  12
SALIDA         FAIR      46  34  63 S8        30.05R
SUNLIGHT       FAIR      27  21  80 SW9       30.11S WCI  17
WILKERSON PASS FOG       28  27  93 CALM      30.09S VSB 1/4
$$

COZ069>075-270300-
...SAN LUIS VALLEY/SANGRE DE CRISTO MOUNTAINS...

CITY           SKY/WX    TMP DP  RH WIND       PRES   REMARKS
ALAMOSA        CLOUDY    46  36  68 SE9       29.95S
LA VETA PASS   NOT AVBL
SAGUACHE       FAIR      43  23  45 N23       29.97S
$$

COZ035-036-038>040-270300-
...NORTHERN COLORADO FRONT RANGE...

CITY           SKY/WX    TMP DP  RH WIND       PRES   REMARKS
DENVER INTL AP MOCLDY    47  35  63 N6        29.97R
DMNS CITY PARK   N/A     47  37  69 N5        29.97S
AURORA         MOCLDY    45  35  69 NE5       29.97R
FRONT RANGE AP MOCLDY    46  39  76 N8        29.98R
ERIE MUNI ARPT MOCLDY    46  41  83 N3        29.96F
BOULDER MUN AP CLOUDY    45  41  87 NE3       29.96F
CENTENNIAL     MOCLDY    47  35  63 N7        29.97R
BROOMFIELD     MOCLDY    45  39  81 NW6       29.98R
FORT COLLINS   LGT RAIN  45  41  86 W3        29.97S
LONGMONT       CLOUDY    47  43  84 CALM      29.98F
$$

COZ041-046-047-076>085-087-088-270300-
...PIKES PEAK/PALMER DIVIDE AND SOUTHERN FOOTHILLS...

CITY           SKY/WX    TMP DP  RH WIND       PRES   REMARKS
COLO. SPRINGS  LGT RAIN  44  37  76 SW9       30.00R
A. F. ACADEMY  CLOUDY    43  36  75 CALM      29.99R
SCHRIEVER AFB  MOCLDY    43  37  79 W7        30.00R
ELLICOTT         N/A    N/A N/A N/A N5        29.98R
FALCON         CLOUDY    42  33  70 CALM      30.01R
FORT CARSON    CLOUDY    44  40  85 SW5       29.98R
LIMON          FAIR      36  33  89 NW3       29.96R
MONUMENT HILL  CLOUDY    37  32  81 CALM      30.01S
TRINIDAD       MOCLDY    44  38  79 E5        29.99R
$$

COZ042>045-048>051-090-091-270300-
...NORTHEAST COLORADO...

CITY           SKY/WX    TMP DP  RH WIND       PRES   REMARKS
GREELEY ARPT   FAIR      44  33  65 CALM      29.97S
AKRON          FAIR      43  35  73 NW12      29.93R
BURLINGTON     FAIR      42  38  85 CALM      29.94R
WRAY           NOT AVBL
STERLING       FAIR      45  37  76 N12       29.92R
HOLYOKE        FAIR      46  36  66 NW3       29.92R
FORT MORGAN    FAIR      42  33  71 N10       29.96R
$$

COZ086-089-092>099-270300-
...SOUTHEAST COLORADO...

CITY           SKY/WX    TMP DP  RH WIND       PRES   REMARKS
PUEBLO         CLOUDY    51  40  65 SE8       29.96R
LA JUNTA       FAIR      45  38  76 E8        29.95R
LAMAR          FAIR      42  38  85 CALM      29.93R
SPRINGFIELD      N/A     42  36  79 N13       29.95R
$$



USA.gov is the U.S. government's official web portal to all federal, state and local government web resources and services.